Powrót do katalogu

STARLINK-4791

AktywnyŁącznośćVLEO
NORAD 53936·PAYLOAD·🇺🇸 United States

Wystrzelony Sep 24, 2022 z Cape Canaveral Space Force Station

Loading…

Następne Przeloty (najbliższe 24 godziny)

TLE

ŚwieżeSource: CelesTrak SupGP

Epoka: Sep 14, 2026, 21:57 UTC

1 53936C 22119BC  26257.91506944 -.00023110  00000+0 -74330-3 0  2576
2 53936  53.1570 155.7758 0001349  91.9188 171.4775 15.31707418    10

Śledź STARLINK-4791 w czasie rzeczywistym z AllMySat

Download on the App Store